User: anonymous
Location: Astronight Observatory
(42.6003°N, 71.2981°W)
Time: 03:24:08
(UTC-04:00)
Language:

DELTA 2 R/B (1) - Orbit

View from above orbital plane
View from above orbital plane
View from above satellite
View from above satellite

Ground track
Ground track

The orbit data is extracted from the following two-line orbital elements,

1 27665U 03005C   14211.12564878  .00000102  00000-0  74125-4 0   777
2 27665 039.5762 071.5508 0010324 261.3907 248.9461 14.28204572600324
Epoch (UTC): 30 July 2014 03:00:56
Eccentricity: 0.0010324
inclination: 39.5762°
perigee height: 790 km
apogee height: 805 km
right ascension of ascending node: 71.5508°
argument of perigee: 261.3907°
revolutions per day: 14.28204572
mean anomaly at epoch: 248.9461°
orbit number at epoch: 60032

The dashed part of the orbit path shows where the satellite is in the earth's shadow,  

DLR